Powrót do katalogu

QIANFAN-62

AktywnyŁącznośćPO
NORAD 62792·PAYLOAD·🇨🇳 China

Wystrzelony Jan 23, 2025 z Taiyuan Satellite Launch Center

Loading…

Następne Przeloty (najbliższe 24 godziny)

TLE

ŚwieżeSource: Space-Track

Epoka: Sep 14, 2026, 22:10 UTC

1 62792U 25016H   26257.92369257  .00000039  00000-0  42574-4 0  9993
2 62792  88.9662  74.4162 0014222 264.8649  95.0879 13.51019675 84526

Śledź QIANFAN-62 w czasie rzeczywistym z AllMySat

Download on the App Store